EW9981 Weather Reports


time (UTC)temp
C
wind
direction
speed
KPH
gust
KPH
rain 1hr
cm
rain 24hr
cm
rain mn
cm
humidity
%
barometer
mb
20260902034519 15 95 1.6 3.2 0.00 0.00 0.00 45 1010.0
20260902033035 16 95 0.0 4.8 0.00 0.00 0.00 43 1009.8
20260902031516 16 95 0.0 14.5 0.00 0.00 0.00 43 1009.7
20260902030020 16 95 4.8 11.3 0.00 0.00 0.00 42 1009.6
20260902024515 16 95 4.8 16.1 0.00 0.00 0.00 40 1009.5
20260902023013 17 95 4.8 12.9 0.00 0.00 0.00 40 1009.4
20260902021541 17 95 4.8 11.3 0.00 0.00 0.00 40 1009.3
20260902020042 18 95 6.4 12.9 0.00 0.00 0.00 39 1009.3
20260902014539 18 95 4.8 12.9 0.00 0.00 0.00 38 1009.4
20260902013038 19 95 3.2 16.1 0.00 0.00 0.00 37 1009.3
20260902011537 20 95 8.0 14.5 0.00 0.00 0.00 36 1009.4
20260902010039 21 95 4.8 19.3 0.00 0.00 0.00 35 1009.4
20260902004534 21 95 3.2 14.5 0.00 0.00 0.00 34 1009.4
20260902003034 21 95 6.4 14.5 0.00 0.00 0.00 33 1009.4
20260902001535 22 95 4.8 30.6 0.00 0.00 0.00 30 1009.6
20260902000032 22 95 4.8 12.9 0.00 0.00 0.00 32 1009.5
20260901234503 22 95 8.0 17.7 0.00 0.00 0.00 32 1009.8
20260901233003 22 95 0.0 17.7 0.00 0.00 0.00 31 1009.7
20260901231530 22 95 6.4 17.7 0.00 0.00 0.00 31 1009.8
20260901230033 22 95 11.3 29.0 0.00 0.00 0.00 33 1010.0
20260901224534 22 95 11.3 19.3 0.00 0.00 0.00 30 1010.1
20260901223025 23 95 1.6 16.1 0.00 0.00 0.00 28 1010.2
20260901221524 23 95 4.8 14.5 0.00 0.00 0.00 28 1010.2
20260901220022 23 95 0.0 12.9 0.00 0.00 0.00 26 1010.3
20260901214553 23 95 3.2 17.7 0.00 0.00 0.00 27 1010.4
20260901213049 22 95 6.4 19.3 0.00 0.00 0.00 27 1010.5
20260901211525 22 95 6.4 20.9 0.00 0.00 0.00 27 1010.5
20260901210018 22 95 8.0 17.7 0.00 0.00 0.00 29 1010.6
20260901204513 22 95 3.2 16.1 0.00 0.00 0.00 30 1010.6
20260901203013 22 95 3.2 17.7 0.00 0.00 0.00 31 1010.8
20260901201511 22 95 3.2 12.9 0.00 0.00 0.00 32 1010.8
20260901200012 22 95 4.8 11.3 0.00 0.00 0.00 32 1011.1
20260901194513 22 95 4.8 16.1 0.00 0.00 0.00 33 1011.1
20260901193007 22 95 4.8 17.7 0.00 0.00 0.00 32 1011.2
20260901191506 22 95 6.4 14.5 0.00 0.00 0.00 30 1011.2
20260901190015 21 95 8.0 14.5 0.00 0.00 0.00 32 1011.2
20260901184503 22 95 6.4 14.5 0.00 0.00 0.00 33 1011.2
20260901183002 22 95 4.8 17.7 0.00 0.00 0.00 32 1011.3
20260901181502 22 95 3.2 22.5 0.00 0.00 0.00 33 1011.4
20260901180100 22 95 4.8 17.7 0.00 0.00 0.00 35 1011.2
20260901174557 21 95 6.4 14.5 0.00 0.00 0.00 34 1011.2
20260901173101 21 95 6.4 12.9 0.00 0.00 0.00 32 1011.2
20260901171600 21 95 1.6 12.9 0.00 0.00 0.00 33 1011.1
20260901170053 20 95 8.0 16.1 0.00 0.00 0.00 37 1010.9
20260901164555 20 95 8.0 19.3 0.00 0.00 0.00 39 1010.7
20260901163046 20 95 6.4 12.9 0.00 0.00 0.00 42 1010.4
20260901161545 20 95 6.4 20.9 0.00 0.00 0.00 43 1010.3
20260901160040 20 95 4.8 17.7 0.00 0.00 0.00 40 1010.3
20260901154539 20 95 1.6 9.7 0.00 0.00 0.00 37 1010.2
20260901153034 19 95 0.0 4.8 0.00 0.00 0.00 43 1010.1
20260901151539 18 95 0.0 3.2 0.00 0.00 0.00 51 1010.0
20260901150029 15 95 1.6 6.4 0.00 0.00 0.00 55 1010.0
20260901144522 12 95 3.2 4.8 0.00 0.00 0.00 65 1010.1
20260901143105 11 95 1.6 4.8 0.00 0.00 0.00 68 1010.1
20260901141547 11 95 1.6 6.4 0.00 0.00 0.00 66 1010.0
20260901140015 11 95 0.0 3.2 0.00 0.00 0.00 65 1009.8
20260901134514 11 95 0.0 4.8 0.00 0.00 0.00 63 1009.7
20260901133011 11 95 1.6 6.4 0.00 0.00 0.00 63 1009.4
20260901131509 10 95 3.2 4.8 0.00 0.00 0.00 63 1009.4
20260901130006 10 95 1.6 4.8 0.00 0.00 0.00 60 1009.3
20260901124507 10 95 0.0 3.2 0.00 0.00 0.00 54 1009.3
20260901123004 10 95 0.0 3.2 0.00 0.00 0.00 52 1009.2
20260901121501 10 95 0.0 1.6 0.00 0.00 0.00 54 1009.2
20260901120101 10 95 0.0 0.0 0.00 0.00 0.00 57 1009.2
20260901114601 10 95 0.0 0.0 0.00 0.00 0.00 57 1009.3
20260901113104 10 95 0.0 3.2 0.00 0.00 0.00 58 1009.3
20260901111555 10 95 0.0 3.2 0.00 0.00 0.00 59 1009.5
20260901110101 10 95 0.0 0.0 0.00 0.00 0.00 59 1009.5
20260901104600 11 95 0.0 0.0 0.00 0.00 0.00 56 1009.5
20260901103049 11 95 0.0 3.2 0.00 0.00 0.00 58 1009.5
20260901101548 11 95 0.0 1.6 0.00 0.00 0.00 60 1009.4
20260901094546 11 95 0.0 3.2 0.00 0.00 0.00 59 1009.4
20260901093012 11 95 1.6 4.8 0.00 0.00 0.00 58 1009.4
20260901091511 11 95 1.6 4.8 0.00 0.00 0.00 58 1009.2
20260901090100 12 95 0.0 3.2 0.00 0.00 0.00 58 1009.2
20260901090009 12 95 0.0 3.2 0.00 0.00 0.00 58 1009.2
20260901084603 12 95 0.0 3.2 0.00 0.00 0.00 57 1009.2
20260901083101 12 95 0.0 1.6 0.00 0.00 0.00 57 1009.3
20260901081554 12 95 0.0 1.6 0.00 0.00 0.00 58 1009.2
20260901080059 12 95 1.6 3.2 0.00 0.00 0.00 58 1009.4
20260901074554 12 95 0.0 0.0 0.00 0.00 0.00 58 1009.3
20260901073054 12 95 0.0 1.6 0.00 0.00 0.00 58 1009.3
20260901071554 13 95 0.0 3.2 0.00 0.00 0.00 56 1009.4
20260901070058 12 95 0.0 1.6 0.00 0.00 0.00 56 1009.4
20260901064554 13 95 1.6 4.8 0.00 0.00 0.00 55 1009.3
20260901063054 13 95 0.0 3.2 0.00 0.00 0.00 54 1009.3
20260901061553 13 95 0.0 3.2 0.00 0.00 0.00 53 1009.3
20260901060002 13 95 0.0 3.2 0.00 0.00 0.00 52 1009.3
20260901054607 13 95 0.0 1.6 0.00 0.00 0.00 53 1009.5
20260901053115 13 95 0.0 1.6 0.00 0.00 0.00 52 1009.4
20260901051603 13 95 0.0 3.2 0.00 0.00 0.00 53 1009.3
20260901050057 14 95 0.0 1.6 0.00 0.00 0.00 53 1009.3
20260901044617 14 95 0.0 1.6 0.00 0.00 0.00 54 1009.3
20260901043054 15 95 0.0 3.2 0.00 0.00 0.00 54 1009.3
20260901041554 15 95 0.0 0.0 0.00 0.00 0.00 54 1009.2
20260901040048 15 95 0.0 1.6 0.00 0.00 0.00 54 1009.0
20260901034547 15 95 0.0 0.0 0.00 0.00 0.00 53 1008.8